| time (UTC) | temp C | wind direction | speed KPH | gust KPH | rain 1hr cm | rain 24hr cm | rain mn cm | humidity % | barometer mb |
| 20260506035432 | -17 | 146 | 3.2 | 4.8 | 0.00 | 0.00 | 0.00 | 1010.3 | |
| 20260506034928 | -17 | 136 | 4.8 | 9.7 | 0.00 | 0.00 | 0.00 | 1010.3 | |
| 20260506034426 | -17 | 187 | 3.2 | 11.3 | 0.00 | 0.00 | 0.00 | 1010.3 | |
| 20260506033923 | -17 | 206 | 1.6 | 11.3 | 0.00 | 0.00 | 0.00 | 1010.3 | |
| 20260506033420 | -17 | 154 | 3.2 | 8.0 | 0.00 | 0.00 | 0.00 | 1010.3 | |
| 20260506032917 | -17 | 287 | 0.0 | 11.3 | 0.00 | 0.00 | 0.00 | 1010.3 | |
| 20260506032414 | -17 | 176 | 3.2 | 8.0 | 0.00 | 0.00 | 0.00 | 1010.3 | |
| 20260506031910 | -17 | 189 | 3.2 | 6.4 | 0.00 | 0.00 | 0.00 | 1010.0 | |
| 20260506031408 | -17 | 136 | 3.2 | 8.0 | 0.00 | 0.00 | 0.00 | 1010.0 | |
| 20260506030905 | -17 | 174 | 1.6 | 11.3 | 0.00 | 0.00 | 0.00 | 1010.0 | |
| 20260506030403 | -17 | 145 | 3.2 | 8.0 | 0.00 | 0.00 | 0.00 | ||
| 20260506025859 | -17 | 172 | 0.0 | 4.8 | 0.00 | 0.00 | 0.00 | ||
| 20260506025356 | -17 | 149 | 1.6 | 4.8 | 0.00 | 0.00 | 0.00 | ||
| 20260506024853 | -17 | 213 | 1.6 | 6.4 | 0.00 | 0.00 | 0.00 | ||
| 20260506024350 | -17 | 189 | 1.6 | 4.8 | 0.00 | 0.00 | 0.00 | ||
| 20260506023846 | -17 | 165 | 1.6 | 3.2 | 0.00 | 0.00 | 0.00 | ||
| 20260506023344 | -17 | 160 | 1.6 | 6.4 | 0.00 | 0.00 | 0.00 | ||
| 20260506022840 | -17 | 151 | 4.8 | 6.4 | 0.00 | 0.00 | 0.00 | ||
| 20260506022338 | -17 | 242 | 0.0 | 4.8 | 0.00 | 0.00 | 0.00 | ||
| 20260506021836 | -17 | 209 | 1.6 | 4.8 | 0.00 | 0.00 | 0.00 | ||
| 20260506021332 | -17 | 192 | 1.6 | 4.8 | 0.00 | 0.00 | 0.00 | ||
| 20260506020829 | -17 | 190 | 1.6 | 4.8 | 0.00 | 0.00 | 0.00 | ||
| 20260506020327 | -17 | 142 | 0.0 | 3.2 | 0.00 | 0.00 | 0.00 | ||
| 20260506015824 | -17 | 195 | 0.0 | 4.8 | 0.00 | 0.00 | 0.00 | ||
| 20260506015322 | -17 | 309 | 0.0 | 3.2 | 0.00 | 0.00 | 0.00 | ||
| 20260506014818 | -17 | 168 | 3.2 | 8.0 | 0.00 | 0.00 | 0.00 | 1008.6 | |
| 20260506014315 | -17 | 175 | 3.2 | 8.0 | 0.00 | 0.00 | 0.00 | 1008.6 | |
| 20260506013812 | -17 | 177 | 1.6 | 6.4 | 0.00 | 0.00 | 0.00 | 1008.6 | |
| 20260506013309 | -17 | 151 | 0.0 | 3.2 | 0.00 | 0.00 | 0.00 | 1008.6 | |
| 20260506012806 | -17 | 133 | 3.2 | 4.8 | 0.00 | 0.00 | 0.00 | 1008.6 | |
| 20260506012307 | -17 | 174 | 0.0 | 4.8 | 0.00 | 0.00 | 0.00 | 1008.6 | |
| 20260506011800 | -17 | 241 | 0.0 | 4.8 | 0.00 | 0.00 | 0.00 | 1008.6 | |
| 20260506011256 | -17 | 193 | 0.0 | 6.4 | 0.00 | 0.00 | 0.00 | 1008.6 | |
| 20260506010754 | -17 | 176 | 3.2 | 8.0 | 0.00 | 0.00 | 0.00 | 1008.6 | |
| 20260506010251 | -17 | 193 | 0.0 | 6.4 | 0.00 | 0.00 | 0.00 | 1008.6 | |
| 20260506005748 | -17 | 146 | 1.6 | 8.0 | 0.00 | 0.00 | 0.00 | 1008.6 | |
| 20260506005245 | -17 | 130 | 0.0 | 3.2 | 0.00 | 0.00 | 0.00 | 1008.6 | |
| 20260506004741 | -17 | 181 | 1.6 | 3.2 | 0.00 | 0.00 | 0.00 | ||
| 20260506004239 | -17 | 225 | 1.6 | 6.4 | 0.00 | 0.00 | 0.00 | ||
| 20260506003734 | -17 | 219 | 1.6 | 4.8 | 0.00 | 0.00 | 0.00 | ||
| 20260506003231 | -17 | 191 | 3.2 | 8.0 | 0.00 | 0.00 | 0.00 | ||
| 20260506002727 | -17 | 237 | 0.0 | 4.8 | 0.00 | 0.00 | 0.00 | ||
| 20260506002224 | -17 | 205 | 3.2 | 9.7 | 0.00 | 0.00 | 0.00 | ||
| 20260506001719 | -17 | 252 | 0.0 | 8.0 | 0.00 | 0.00 | 0.00 | 1008.4 | |
| 20260506001218 | -17 | 185 | 0.0 | 8.0 | 0.00 | 0.00 | 0.00 | 1008.4 | |
| 20260506000714 | -17 | 204 | 1.6 | 3.2 | 0.00 | 0.00 | 0.00 | 1008.4 | |
| 20260506000212 | -17 | 196 | 1.6 | 4.8 | 0.00 | 0.00 | 0.00 | 1008.4 | |
| 20260505235709 | -17 | 272 | 1.6 | 3.2 | 0.00 | 0.00 | 0.00 | 1008.4 | |
| 20260505235206 | -17 | 208 | 1.6 | 3.2 | 0.00 | 0.00 | 0.00 | 1008.4 | |
| 20260505234703 | -17 | 166 | 0.0 | 6.4 | 0.00 | 0.00 | 0.00 | 1008.4 | |
| 20260505234200 | -17 | 247 | 1.6 | 4.8 | 0.00 | 0.00 | 0.00 | 1008.4 | |
| 20260505233657 | -17 | 224 | 0.0 | 6.4 | 0.00 | 0.00 | 0.00 | 1008.4 | |
| 20260505233155 | -17 | 259 | 0.0 | 4.8 | 0.00 | 0.00 | 0.00 | 1008.4 | |
| 20260505232652 | -17 | 237 | 3.2 | 4.8 | 0.00 | 0.00 | 0.00 | 1008.4 | |
| 20260505232150 | -17 | 206 | 1.6 | 4.8 | 0.00 | 0.00 | 0.00 | 1008.4 | |
| 20260505231646 | -17 | 220 | 4.8 | 9.7 | 0.00 | 0.00 | 0.00 | 1008.4 | |
| 20260505231145 | -17 | 196 | 1.6 | 3.2 | 0.00 | 0.00 | 0.00 | 1008.3 | |
| 20260505230643 | -17 | 120 | 8.0 | 11.3 | 0.00 | 0.00 | 0.00 | 1008.2 | |
| 20260505230138 | -17 | 218 | 3.2 | 8.0 | 0.00 | 0.00 | 0.00 | 1008.2 | |
| 20260505225635 | -17 | 148 | 3.2 | 6.4 | 0.00 | 0.00 | 0.00 | 1008.2 | |
| 20260505225132 | -17 | 170 | 6.4 | 17.7 | 0.00 | 0.00 | 0.00 | 1008.0 | |
| 20260505224628 | -17 | 180 | 3.2 | 12.9 | 0.00 | 0.00 | 0.00 | 1008.1 | |
| 20260505224126 | -17 | 107 | 0.0 | 9.7 | 0.00 | 0.00 | 0.00 | 1008.0 | |
| 20260505223623 | -17 | 173 | 3.2 | 6.4 | 0.00 | 0.00 | 0.00 | 1008.1 | |
| 20260505223119 | -17 | 233 | 3.2 | 4.8 | 0.00 | 0.00 | 0.00 | 1008.2 | |
| 20260505222615 | -17 | 210 | 4.8 | 4.8 | 0.00 | 0.00 | 0.00 | 1008.1 | |
| 20260505222112 | -17 | 215 | 1.6 | 4.8 | 0.00 | 0.00 | 0.00 | 1008.2 | |
| 20260505221609 | -17 | 223 | 4.8 | 6.4 | 0.00 | 0.00 | 0.00 | 1008.0 | |
| 20260505221105 | -17 | 219 | 4.8 | 4.8 | 0.00 | 0.00 | 0.00 | 1008.0 | |
| 20260505220603 | -17 | 135 | 4.8 | 8.0 | 0.00 | 0.00 | 0.00 | ||
| 20260505220101 | -17 | 244 | 1.6 | 6.4 | 0.00 | 0.00 | 0.00 | ||
| 20260505215558 | -17 | 180 | 3.2 | 6.4 | 0.00 | 0.00 | 0.00 | 1008.8 | |
| 20260505215056 | -17 | 219 | 0.0 | 6.4 | 0.00 | 0.00 | 0.00 | 1008.8 | |
| 20260505214554 | -17 | 238 | 3.2 | 6.4 | 0.00 | 0.00 | 0.00 | 1008.8 | |
| 20260505214050 | -17 | 203 | 1.6 | 6.4 | 0.00 | 0.00 | 0.00 | 1008.8 | |
| 20260505213548 | -17 | 183 | 3.2 | 3.2 | 0.00 | 0.00 | 0.00 | 1008.8 | |
| 20260505213044 | -17 | 230 | 4.8 | 9.7 | 0.00 | 0.00 | 0.00 | 1008.8 | |
| 20260505212541 | -17 | 216 | 4.8 | 11.3 | 0.00 | 0.00 | 0.00 | 1008.8 | |
| 20260505212038 | -17 | 169 | 3.2 | 6.4 | 0.00 | 0.00 | 0.00 | 1008.8 | |
| 20260505211535 | -17 | 162 | 1.6 | 6.4 | 0.00 | 0.00 | 0.00 | 1008.8 | |
| 20260505211031 | -17 | 233 | 4.8 | 8.0 | 0.00 | 0.00 | 0.00 | 1008.8 | |
| 20260505210528 | -17 | 152 | 8.0 | 11.3 | 0.00 | 0.00 | 0.00 | 1008.8 | |
| 20260505210026 | -17 | 204 | 3.2 | 11.3 | 0.00 | 0.00 | 0.00 | 1008.8 | |
| 20260505205524 | -17 | 208 | 1.6 | 8.0 | 0.00 | 0.00 | 0.00 | 1008.8 | |
| 20260505205021 | -17 | 223 | 3.2 | 8.0 | 0.00 | 0.00 | 0.00 | 1008.9 | |
| 20260505204518 | -17 | 208 | 4.8 | 6.4 | 0.00 | 0.00 | 0.00 | 1009.1 | |
| 20260505204015 | -17 | 231 | 1.6 | 6.4 | 0.00 | 0.00 | 0.00 | 1008.8 | |
| 20260505203512 | -17 | 197 | 3.2 | 8.0 | 0.00 | 0.00 | 0.00 | 1009.1 | |
| 20260505203009 | -17 | 180 | 1.6 | 16.1 | 0.00 | 0.00 | 0.00 | 1009.2 | |
| 20260505202505 | -17 | 266 | 3.2 | 6.4 | 0.00 | 0.00 | 0.00 | 1009.1 | |
| 20260505202001 | -17 | 220 | 3.2 | 9.7 | 0.00 | 0.00 | 0.00 | 1009.4 | |
| 20260505201458 | -17 | 272 | 4.8 | 6.4 | 0.00 | 0.00 | 0.00 | 1009.4 | |
| 20260505200955 | -17 | 96 | 4.8 | 6.4 | 0.00 | 0.00 | 0.00 | 1009.5 | |
| 20260505200453 | -17 | 223 | 1.6 | 4.8 | 0.00 | 0.00 | 0.00 | 1009.6 | |
| 20260505195949 | -17 | 196 | 1.6 | 9.7 | 0.00 | 0.00 | 0.00 | 1009.7 | |
| 20260505195446 | -17 | 216 | 6.4 | 8.0 | 0.00 | 0.00 | 0.00 | 1009.8 | |
| 20260505194943 | -17 | 227 | 3.2 | 4.8 | 0.00 | 0.00 | 0.00 | 1009.6 | |
| 20260505194441 | -17 | 150 | 6.4 | 14.5 | 0.00 | 0.00 | 0.00 | 1009.7 | |
| 20260505193941 | -17 | 191 | 3.2 | 8.0 | 0.00 | 0.00 | 0.00 | 1010.0 | |
| 20260505193438 | -17 | 326 | 0.0 | 4.8 | 0.00 | 0.00 | 0.00 | 1010.0 | |
| 20260505192936 | -17 | 234 | 3.2 | 9.7 | 0.00 | 0.00 | 0.00 | 1010.0 | |
| 20260505192434 | -17 | 229 | 3.2 | 14.5 | 0.00 | 0.00 | 0.00 | 1010.1 | |
| 20260505191931 | -17 | 192 | 3.2 | 11.3 | 0.00 | 0.00 | 0.00 | 1009.9 | |
| 20260505191430 | -17 | 8 | 1.6 | 16.1 | 0.00 | 0.00 | 0.00 | 1010.2 | |
| 20260505190926 | -17 | 227 | 3.2 | 6.4 | 0.00 | 0.00 | 0.00 | 1010.2 | |
| 20260505190422 | -17 | 283 | 3.2 | 6.4 | 0.00 | 0.00 | 0.00 | 1010.2 | |
| 20260505185917 | -17 | 229 | 3.2 | 9.7 | 0.00 | 0.00 | 0.00 | 1010.5 | |
| 20260505185415 | -17 | 142 | 3.2 | 8.0 | 0.00 | 0.00 | 0.00 | 1010.3 | |
| 20260505184911 | -17 | 248 | 4.8 | 8.0 | 0.00 | 0.00 | 0.00 | 1010.5 | |
| 20260505184408 | -17 | 202 | 1.6 | 6.4 | 0.00 | 0.00 | 0.00 | 1010.6 | |
| 20260505183905 | -17 | 269 | 1.6 | 6.4 | 0.00 | 0.00 | 0.00 | 1010.8 | |
| 20260505183402 | -17 | 279 | 4.8 | 6.4 | 0.00 | 0.00 | 0.00 | 1010.8 | |
| 20260505182858 | -17 | 269 | 4.8 | 9.7 | 0.00 | 0.00 | 0.00 | 1011.0 | |
| 20260505182355 | -17 | 211 | 4.8 | 8.0 | 0.00 | 0.00 | 0.00 | 1011.0 | |
| 20260505181851 | -17 | 217 | 3.2 | 11.3 | 0.00 | 0.00 | 0.00 | 1011.1 | |
| 20260505181349 | -17 | 225 | 3.2 | 6.4 | 0.00 | 0.00 | 0.00 | 1011.1 | |
| 20260505180845 | -17 | 231 | 4.8 | 6.4 | 0.00 | 0.00 | 0.00 | 1011.0 | |
| 20260505180342 | -17 | 226 | 3.2 | 8.0 | 0.00 | 0.00 | 0.00 | 1011.2 | |
| 20260505175839 | -17 | 250 | 4.8 | 8.0 | 0.00 | 0.00 | 0.00 | 1011.3 | |
| 20260505175335 | -17 | 198 | 1.6 | 4.8 | 0.00 | 0.00 | 0.00 | 1011.3 | |
| 20260505174831 | -17 | 255 | 1.6 | 6.4 | 0.00 | 0.00 | 0.00 | 1011.6 | |
| 20260505174329 | -17 | 180 | 0.0 | 3.2 | 0.00 | 0.00 | 0.00 | 1011.5 | |
| 20260505173824 | -17 | 219 | 4.8 | 8.0 | 0.00 | 0.00 | 0.00 | 1011.4 | |
| 20260505173321 | -17 | 245 | 4.8 | 6.4 | 0.00 | 0.00 | 0.00 | 1011.4 | |
| 20260505172819 | -17 | 221 | 3.2 | 8.0 | 0.00 | 0.00 | 0.00 | 1011.5 | |
| 20260505172317 | -17 | 271 | 0.0 | 8.0 | 0.00 | 0.00 | 0.00 | 1011.5 | |
| 20260505171815 | -17 | 212 | 6.4 | 11.3 | 0.00 | 0.00 | 0.00 | 1011.4 | |
| 20260505171313 | -17 | 229 | 0.0 | 4.8 | 0.00 | 0.00 | 0.00 | 1011.5 | |
| 20260505170809 | -17 | 242 | 0.0 | 4.8 | 0.00 | 0.00 | 0.00 | 1011.4 | |
| 20260505170306 | -17 | 248 | 0.0 | 3.2 | 0.00 | 0.00 | 0.00 | 1011.7 | |
| 20260505165801 | -17 | 199 | 3.2 | 4.8 | 0.00 | 0.00 | 0.00 | 1011.5 | |
| 20260505165257 | -17 | 217 | 3.2 | 4.8 | 0.00 | 0.00 | 0.00 | 1011.5 | |
| 20260505164753 | -17 | 193 | 0.0 | 4.8 | 0.00 | 0.00 | 0.00 | 1011.5 | |
| 20260505164251 | -17 | 215 | 1.6 | 4.8 | 0.00 | 0.00 | 0.00 | 1011.6 | |
| 20260505163749 | -17 | 228 | 3.2 | 6.4 | 0.00 | 0.00 | 0.00 | 1011.8 | |
| 20260505163247 | -17 | 211 | 3.2 | 8.0 | 0.00 | 0.00 | 0.00 | 1011.7 | |
| 20260505162744 | -17 | 227 | 3.2 | 6.4 | 0.00 | 0.00 | 0.00 | 1011.6 | |
| 20260505162241 | -17 | 263 | 0.0 | 4.8 | 0.00 | 0.00 | 0.00 | 1011.6 | |
| 20260505161738 | -17 | 225 | 3.2 | 4.8 | 0.00 | 0.00 | 0.00 | 1011.8 | |
| 20260505161236 | -17 | 228 | 3.2 | 8.0 | 0.00 | 0.00 | 0.00 | 1011.8 | |
| 20260505160733 | -17 | 235 | 0.0 | 4.8 | 0.00 | 0.00 | 0.00 | 1011.5 | |
| 20260505160231 | -17 | 221 | 4.8 | 4.8 | 0.00 | 0.00 | 0.00 | 1011.6 | |
| 20260505153210 | -17 | 223 | 1.6 | 11.3 | 0.00 | 0.00 | 0.00 | 1011.7 | |
| 20260505152706 | -17 | 216 | 0.0 | 4.8 | 0.00 | 0.00 | 0.00 | 1011.7 | |
| 20260505152202 | -17 | 187 | 1.6 | 9.7 | 0.00 | 0.00 | 0.00 | 1011.8 | |
| 20260505151657 | -17 | 194 | 4.8 | 9.7 | 0.00 | 0.00 | 0.00 | 1011.6 | |
| 20260505151156 | -17 | 217 | 4.8 | 6.4 | 0.00 | 0.00 | 0.00 | 1011.9 | |
| 20260505150651 | -17 | 200 | 0.0 | 4.8 | 0.00 | 0.00 | 0.00 | 1011.6 | |
| 20260505150149 | -17 | 225 | 0.0 | 3.2 | 0.00 | 0.00 | 0.00 | 1011.5 | |
| 20260505140617 | -17 | 236 | 0.0 | 6.4 | 0.00 | 0.00 | 0.00 | 1011.2 | |
| 20260505140114 | -17 | 228 | 1.6 | 4.8 | 0.00 | 0.00 | 0.00 | 1011.1 | |
| 20260505125030 | -17 | 199 | 4.8 | 6.4 | 0.00 | 0.00 | 0.00 | 1010.6 | |
| 20260505124527 | -17 | 248 | 1.6 | 4.8 | 0.00 | 0.00 | 0.00 | 1010.6 | |
| 20260505124023 | -17 | 212 | 0.0 | 8.0 | 0.00 | 0.00 | 0.00 | 1010.5 | |
| 20260505123520 | -17 | 178 | 1.6 | 4.8 | 0.00 | 0.00 | 0.00 | 1010.4 | |
| 20260505123016 | -17 | 254 | 3.2 | 6.4 | 0.00 | 0.00 | 0.00 | 1010.3 | |
| 20260505122513 | -17 | 204 | 1.6 | 8.0 | 0.00 | 0.00 | 0.00 | 1010.1 | |
| 20260505122010 | -17 | 185 | 3.2 | 12.9 | 0.00 | 0.00 | 0.00 | 1010.1 | |
| 20260505121506 | -17 | 191 | 3.2 | 4.8 | 0.00 | 0.00 | 0.00 | 1009.9 | |
| 20260505121003 | -17 | 216 | 3.2 | 6.4 | 0.00 | 0.00 | 0.00 | 1010.1 | |
| 20260505120500 | -17 | 212 | 3.2 | 8.0 | 0.00 | 0.00 | 0.00 | 1010.0 | |
| 20260505115959 | -17 | 197 | 1.6 | 4.8 | 0.00 | 0.00 | 0.00 | 1010.0 | |
| 20260505115455 | -17 | 174 | 1.6 | 6.4 | 0.00 | 0.00 | 0.00 | 1009.9 | |
| 20260505114953 | -17 | 212 | 1.6 | 8.0 | 0.00 | 0.00 | 0.00 | 1009.6 | |
| 20260505114449 | -17 | 175 | 0.0 | 4.8 | 0.00 | 0.00 | 0.00 | 1009.8 | |
| 20260505113946 | -17 | 199 | 4.8 | 11.3 | 0.00 | 0.00 | 0.00 | 1009.8 | |
| 20260505113442 | -17 | 185 | 1.6 | 4.8 | 0.00 | 0.00 | 0.00 | 1009.9 | |
| 20260505112938 | -17 | 256 | 0.0 | 6.4 | 0.00 | 0.00 | 0.00 | 1009.8 | |
| 20260505112436 | -17 | 212 | 3.2 | 4.8 | 0.00 | 0.00 | 0.00 | 1009.7 | |
| 20260505111932 | -17 | 214 | 4.8 | 12.9 | 0.00 | 0.00 | 0.00 | 1009.6 | |
| 20260505111426 | -17 | 239 | 1.6 | 6.4 | 0.00 | 0.00 | 0.00 | 1009.6 | |
| 20260505110923 | -17 | 154 | 1.6 | 9.7 | 0.00 | 0.00 | 0.00 | 1009.8 | |
| 20260505110420 | -17 | 179 | 3.2 | 6.4 | 0.00 | 0.00 | 0.00 | 1009.7 | |
| 20260505101851 | -17 | 222 | 1.6 | 9.7 | 0.00 | 0.00 | 0.00 | 1009.9 | |
| 20260505101346 | -17 | 186 | 0.0 | 8.0 | 0.00 | 0.00 | 0.00 | 1010.0 | |
| 20260505100842 | -17 | 193 | 3.2 | 4.8 | 0.00 | 0.00 | 0.00 | 1010.1 | |
| 20260505100339 | -17 | 187 | 3.2 | 9.7 | 0.00 | 0.00 | 0.00 | 1010.3 | |
| 20260505095834 | -17 | 170 | 1.6 | 6.4 | 0.00 | 0.00 | 0.00 | 1010.4 | |
| 20260505095332 | -17 | 216 | 3.2 | 6.4 | 0.00 | 0.00 | 0.00 | 1010.2 | |
| 20260505094827 | -17 | 236 | 1.6 | 3.2 | 0.00 | 0.00 | 0.00 | 1010.2 | |
| 20260505094325 | -17 | 148 | 1.6 | 8.0 | 0.00 | 0.00 | 0.00 | 1010.2 | |
| 20260505093820 | -17 | 189 | 3.2 | 4.8 | 0.00 | 0.00 | 0.00 | 1010.3 | |
| 20260505093318 | -17 | 222 | 4.8 | 6.4 | 0.00 | 0.00 | 0.00 | 1010.3 | |
| 20260505092814 | -17 | 215 | 1.6 | 4.8 | 0.00 | 0.00 | 0.00 | 1010.2 | |
| 20260505092313 | -17 | 218 | 0.0 | 11.3 | 0.00 | 0.00 | 0.00 | 1010.3 | |
| 20260505091810 | -17 | 207 | 0.0 | 4.8 | 0.00 | 0.00 | 0.00 | 1010.3 | |
| 20260505091308 | -17 | 184 | 3.2 | 4.8 | 0.00 | 0.00 | 0.00 | 1010.4 | |
| 20260505090806 | -17 | 230 | 0.0 | 12.9 | 0.00 | 0.00 | 0.00 | 1010.5 | |
| 20260505090304 | -17 | 180 | 0.0 | 4.8 | 0.00 | 0.00 | 0.00 | 1010.5 | |
| 20260505085801 | -17 | 170 | 3.2 | 6.4 | 0.00 | 0.00 | 0.00 | 1010.2 | |
| 20260505085259 | -17 | 123 | 1.6 | 8.0 | 0.00 | 0.00 | 0.00 | 1010.4 | |
| 20260505084756 | -17 | 200 | 1.6 | 4.8 | 0.00 | 0.00 | 0.00 | 1010.6 | |
| 20260505084255 | -17 | 175 | 3.2 | 4.8 | 0.00 | 0.00 | 0.00 | 1010.5 | |
| 20260505083751 | -17 | 212 | 0.0 | 4.8 | 0.00 | 0.00 | 0.00 | 1010.5 | |
| 20260505083248 | -17 | 200 | 3.2 | 6.4 | 0.00 | 0.00 | 0.00 | 1010.5 | |
| 20260505082744 | -17 | 195 | 1.6 | 6.4 | 0.00 | 0.00 | 0.00 | 1010.5 | |
| 20260505082242 | -17 | 222 | 1.6 | 9.7 | 0.00 | 0.00 | 0.00 | 1010.7 | |
| 20260505081737 | -17 | 261 | 1.6 | 14.5 | 0.00 | 0.00 | 0.00 | 1010.8 | |
| 20260505081235 | -17 | 292 | 3.2 | 6.4 | 0.00 | 0.00 | 0.00 | 1010.8 | |
| 20260505080732 | -17 | 172 | 6.4 | 20.9 | 0.00 | 0.00 | 0.00 | 1010.8 | |
| 20260505080227 | -17 | 232 | 3.2 | 6.4 | 0.00 | 0.00 | 0.00 | 1010.9 | |
| 20260505075723 | -17 | 223 | 3.2 | 6.4 | 0.00 | 0.00 | 0.00 | 1010.8 | |
| 20260505075221 | -17 | 184 | 1.6 | 4.8 | 0.00 | 0.00 | 0.00 | 1010.9 | |
| 20260505074718 | -17 | 195 | 3.2 | 9.7 | 0.00 | 0.00 | 0.00 | 1010.9 | |
| 20260505074215 | -17 | 221 | 0.0 | 8.0 | 0.00 | 0.00 | 0.00 | 1011.0 | |
| 20260505073712 | -17 | 182 | 6.4 | 12.9 | 0.00 | 0.00 | 0.00 | 1011.0 | |
| 20260505073210 | -17 | 211 | 1.6 | 4.8 | 0.00 | 0.00 | 0.00 | 1011.0 | |
| 20260505072706 | -17 | 208 | 4.8 | 8.0 | 0.00 | 0.00 | 0.00 | 1011.0 | |
| 20260505072202 | -17 | 205 | 4.8 | 6.4 | 0.00 | 0.00 | 0.00 | 1011.1 | |
| 20260505071658 | -17 | 227 | 1.6 | 11.3 | 0.00 | 0.00 | 0.00 | 1011.2 | |
| 20260505071156 | -17 | 213 | 3.2 | 8.0 | 0.00 | 0.00 | 0.00 | 1011.3 | |
| 20260505070653 | -17 | 184 | 1.6 | 4.8 | 0.00 | 0.00 | 0.00 | 1011.4 | |
| 20260505070149 | -17 | 217 | 1.6 | 6.4 | 0.00 | 0.00 | 0.00 | 1011.5 | |
| 20260505065645 | -17 | 195 | 1.6 | 8.0 | 0.00 | 0.00 | 0.00 | 1011.6 | |
| 20260505065142 | -17 | 239 | 3.2 | 8.0 | 0.00 | 0.00 | 0.00 | 1011.6 | |
| 20260505064639 | -17 | 217 | 3.2 | 12.9 | 0.00 | 0.00 | 0.00 | 1011.6 | |
| 20260505064137 | -17 | 221 | 1.6 | 8.0 | 0.00 | 0.00 | 0.00 | 1011.6 | |
| 20260505063634 | -17 | 246 | 3.2 | 8.0 | 0.00 | 0.00 | 0.00 | 1011.5 | |
| 20260505063130 | -17 | 151 | 4.8 | 9.7 | 0.00 | 0.00 | 0.00 | 1011.7 | |
| 20260505062627 | -17 | 28 | 1.6 | 9.7 | 0.00 | 0.00 | 0.00 | 1011.9 | |
| 20260505062124 | -17 | 180 | 1.6 | 20.9 | 0.00 | 0.00 | 0.00 | 1011.8 | |
| 20260505061621 | -17 | 156 | 0.0 | 4.8 | 0.00 | 0.00 | 0.00 | 1011.8 | |
| 20260505061119 | -17 | 199 | 0.0 | 4.8 | 0.00 | 0.00 | 0.00 | 1011.9 | |
| 20260505060617 | -17 | 180 | 1.6 | 14.5 | 0.00 | 0.00 | 0.00 | 1011.9 | |
| 20260505060113 | -17 | 190 | 3.2 | 16.1 | 0.00 | 0.00 | 0.00 | 1011.7 | |
| 20260505055608 | -17 | 216 | 3.2 | 4.8 | 0.00 | 0.00 | 0.00 | 1011.8 | |
| 20260505055105 | -17 | 242 | 1.6 | 4.8 | 0.00 | 0.00 | 0.00 | 1011.9 | |
| 20260505054602 | -17 | 207 | 3.2 | 4.8 | 0.00 | 0.00 | 0.00 | 1011.9 | |
| 20260505054101 | -17 | 184 | 3.2 | 6.4 | 0.00 | 0.00 | 0.00 | 1011.9 | |
| 20260505053557 | -17 | 198 | 3.2 | 4.8 | 0.00 | 0.00 | 0.00 | 1011.9 | |
| 20260505053054 | -17 | 119 | 4.8 | 9.7 | 0.00 | 0.00 | 0.00 | 1011.8 | |
| 20260505052551 | -17 | 207 | 1.6 | 9.7 | 0.00 | 0.00 | 0.00 | 1011.7 | |
| 20260505052049 | -17 | 219 | 0.0 | 17.7 | 0.00 | 0.00 | 0.00 | 1012.0 | |
| 20260505051545 | -17 | 172 | 1.6 | 8.0 | 0.00 | 0.00 | 0.00 | 1011.6 | |
| 20260505051043 | -17 | 180 | 3.2 | 6.4 | 0.00 | 0.00 | 0.00 | 1011.7 | |
| 20260505050541 | -17 | 203 | 0.0 | 9.7 | 0.00 | 0.00 | 0.00 | 1011.6 | |
| 20260505041509 | -17 | 180 | 4.8 | 12.9 | 0.00 | 0.00 | 0.00 | 1011.5 | |
| 20260505041006 | -17 | 200 | 4.8 | 8.0 | 0.00 | 0.00 | 0.00 | 1011.5 | |
| 20260505040503 | -17 | 211 | 1.6 | 4.8 | 0.00 | 0.00 | 0.00 | 1011.6 | |
| 20260505040001 | -17 | 165 | 1.6 | 3.2 | 0.00 | 0.00 | 0.00 | 1011.6 |